カタログに戻る

SL-16 DEB

運用中LEO
NORAD 18550·DEBRIS·🇷🇺 Russia

打ち上げ Mar 18, 1987 から Baikonur Cosmodrome

Loading…

次のパス (今後24時間)

TLE

最新Source: Space-Track

元期: Sep 13, 2026, 16:26 UTC

1 18550U 87027F   26256.68529183  .00000101  00000-0  12511-3 0  9991
2 18550  71.0274 352.9458 0182796 310.8044  47.7325 13.79295737986184

AllMySatでSL-16 DEBをリアルタイム追跡

Download on the App Store